Weather History for KJWG - January, 2013

Change the Weather History Date:

Wednesday, January 30, 2013

  Actual Average Record
Temperature  
Mean Temperature 39 °F -  
Max Temperature 45 °F 49 °F 70 °F (1988)
Min Temperature 33 °F 25 °F -3 °F (1966)
Degree Days  
Heating Degree Days 26    
Moisture  
Dew Point 28 °F    
Average Humidity 70    
Maximum Humidity 89    
Minimum Humidity 43    
Precipitation  
Precipitation 0.00 in - - ()
Sea Level Pressure  
Sea Level Pressure 29.94 in    
Wind  
Wind Speed 15 mph (NW)    
Max Wind Speed 24 mph    
Max Gust Speed 34 mph    
Visibility 10 miles    
Events      
Averages and records for this station are not official NWS values.
T = Trace of Precipitation, MM = Missing Value Source: NWS Daily Summary

Daily Weather History Graph

Daily Weather History Graph

Search for Another Location

Airport or City:

Trip Planner

Search our weather history database for the weather conditions in past years. The results will help you decide how hot, cold, wet, or windy it might be!

Date:

Astronomy

Jan. 30, 2013 Rise Set
Actual Time 7:35 AM CST 5:59 PM CST
Civil Twilight 7:08 AM CST 6:26 PM CST
Nautical Twilight 6:37 AM CST 6:56 PM CST
Astronomical Twilight 6:07 AM CST 7:27 PM CST
Moon 9:49 PM CST (1/30) 9:12 AM CST (1/30)
Length of Visible Light 11h 17m
Length of Day
10h 23m
Waning Gibbous, 87% of the Moon is Illuminated
Jan 30
Waning Gibbous
Feb 3
Last Quarter
Feb 10
New
Feb 17
First Quarter
Feb 25
Full

Hourly Weather History & Observations

Time (CST) Temp. Windchill Dew Point Humidity Pressure Visibility Wind Dir Wind Speed Gust Speed Precip Events Conditions
12:15 AM 38.1 °F 29.5 °F 35.2 °F 89% 29.68 in 10.0 mi NNW 15.0 mph 19.6 mph N/A   Overcast
12:35 AM 38.3 °F 28.7 °F 34.5 °F 86% 29.70 in 10.0 mi NNW 18.4 mph 25.3 mph N/A   Overcast
12:55 AM 37.6 °F 27.1 °F 33.8 °F 86% 29.70 in 10.0 mi NNW 20.7 mph 27.6 mph N/A   Overcast
1:35 AM 37.4 °F 27.8 °F 32.9 °F 84% 29.73 in 10.0 mi NNW 17.3 mph 26.5 mph N/A   Overcast
1:55 AM 37.4 °F 28.2 °F 32.7 °F 83% 29.74 in 10.0 mi NNW 16.1 mph 23.0 mph N/A   Overcast
2:15 AM 37.2 °F 27.6 °F 32.5 °F 83% 29.75 in 10.0 mi NNW 17.3 mph 24.2 mph N/A   Overcast
2:35 AM 36.9 °F 27.8 °F 32.4 °F 84% 29.76 in 10.0 mi NNW 15.0 mph 23.0 mph N/A   Overcast
3:15 AM 36.9 °F 27.5 °F 31.8 °F 82% 29.78 in 10.0 mi NNW 16.1 mph 27.6 mph N/A   Overcast
3:35 AM 36.5 °F 26.0 °F 31.8 °F 83% 29.79 in 10.0 mi NNW 19.6 mph 28.8 mph N/A   Overcast
3:55 AM 36.1 °F 26.2 °F 31.8 °F 84% 29.79 in 10.0 mi NNW 17.3 mph 32.2 mph N/A   Overcast
4:15 AM 35.8 °F 25.7 °F 31.6 °F 85% 29.80 in 10.0 mi NNW 17.3 mph 28.8 mph N/A   Overcast
4:35 AM 35.6 °F 24.8 °F 31.6 °F 85% 29.81 in 10.0 mi NNW 19.6 mph 26.5 mph N/A   Overcast
4:55 AM 35.6 °F 24.5 °F 31.6 °F 85% 29.81 in 10.0 mi NNW 20.7 mph 26.5 mph N/A   Mostly Cloudy
5:15 AM 35.6 °F 27.1 °F 32.0 °F 87% 29.83 in 10.0 mi NW 12.7 mph - N/A   Overcast
5:35 AM 35.4 °F 24.9 °F 32.0 °F 87% 29.83 in 10.0 mi NW 18.4 mph 27.6 mph N/A   Mostly Cloudy
5:55 AM 34.9 °F 24.6 °F 32.0 °F 89% 29.84 in 10.0 mi NW 17.3 mph 20.7 mph N/A   Scattered Clouds
6:15 AM 35.2 °F 24.7 °F 32.0 °F 88% 29.85 in 10.0 mi NW 18.4 mph 25.3 mph N/A   Mostly Cloudy
6:35 AM 35.4 °F 25.3 °F 32.0 °F 87% 29.86 in 10.0 mi NW 17.3 mph 21.9 mph N/A   Overcast
7:15 AM 35.6 °F 27.1 °F 32.2 °F 87% 29.89 in 10.0 mi NNW 12.7 mph 20.7 mph N/A   Mostly Cloudy
7:35 AM 35.8 °F 26.5 °F 32.4 °F 87% 29.91 in 10.0 mi NW 15.0 mph - N/A   Overcast
7:55 AM 35.1 °F 24.5 °F 31.1 °F 85% 29.92 in 10.0 mi NW 18.4 mph 25.3 mph N/A   Overcast
8:15 AM 33.8 °F 22.2 °F 30.0 °F 86% 29.94 in 10.0 mi WNW 20.7 mph 27.6 mph N/A   Mostly Cloudy
8:35 AM 33.3 °F 23.2 °F 29.8 °F 87% 29.96 in 10.0 mi NW 15.0 mph 23.0 mph N/A   Mostly Cloudy
8:55 AM 33.8 °F 23.5 °F 29.7 °F 85% 29.97 in 10.0 mi NW 16.1 mph 25.3 mph N/A   Scattered Clouds
9:15 AM 34.0 °F 23.0 °F 29.3 °F 83% 29.98 in 10.0 mi NW 18.4 mph 25.3 mph N/A   Scattered Clouds
9:35 AM 34.9 °F 24.9 °F 29.5 °F 81% 29.98 in 10.0 mi NNW 16.1 mph 21.9 mph N/A   Clear
9:55 AM 35.8 °F 25.7 °F 29.7 °F 78% 29.99 in 10.0 mi NNW 17.3 mph 23.0 mph N/A   Clear
10:15 AM 36.7 °F 26.3 °F 29.7 °F 76% 29.99 in 10.0 mi NNW 19.6 mph 24.2 mph N/A   Clear
10:35 AM 37.2 °F 27.9 °F 29.8 °F 75% 30.01 in 10.0 mi NW 16.1 mph 27.6 mph N/A   Clear
10:55 AM 37.8 °F 27.7 °F 30.0 °F 74% 30.01 in 10.0 mi NNW 19.6 mph 25.3 mph N/A   Scattered Clouds
11:15 AM 38.7 °F 29.5 °F 30.0 °F 71% 30.02 in 10.0 mi NNW 17.3 mph 25.3 mph N/A   Scattered Clouds
11:35 AM 39.4 °F 31.8 °F 29.5 °F 68% 30.02 in 10.0 mi NNW 12.7 mph 21.9 mph N/A   Scattered Clouds
11:55 AM 39.6 °F 31.3 °F 29.5 °F 67% 30.02 in 10.0 mi NW 15.0 mph 21.9 mph N/A   Scattered Clouds
12:15 PM 40.3 °F 31.9 °F 29.3 °F 65% 30.02 in 10.0 mi NW 16.1 mph 24.2 mph N/A   Mostly Cloudy
12:35 PM 40.5 °F 32.1 °F 29.7 °F 65% 30.01 in 10.0 mi NW 16.1 mph 24.2 mph N/A   Scattered Clouds
12:55 PM 40.6 °F 33.4 °F 29.8 °F 65% 30.01 in 10.0 mi NW 12.7 mph 21.9 mph N/A   Scattered Clouds
1:15 PM 42.4 °F 35.7 °F 31.1 °F 64% 30.00 in 10.0 mi WNW 12.7 mph 27.6 mph N/A   Scattered Clouds
1:35 PM 43.0 °F 34.5 °F 30.2 °F 61% 30.00 in 10.0 mi NW 19.6 mph 31.1 mph N/A   Scattered Clouds
1:55 PM 43.2 °F 35.9 °F 28.9 °F 57% 29.99 in 10.0 mi WNW 15.0 mph 20.7 mph N/A   Scattered Clouds
2:15 PM 43.9 °F 36.5 °F 27.7 °F 53% 29.99 in 10.0 mi NW 16.1 mph 26.5 mph N/A   Clear
2:35 PM 45.1 °F 37.3 °F 28.4 °F 52% 29.99 in 10.0 mi WNW 19.6 mph 27.6 mph N/A   Clear
2:55 PM 44.2 °F 36.4 °F 25.3 °F 47% 29.98 in 10.0 mi NW 18.4 mph 34.5 mph N/A   Clear
3:15 PM 44.8 °F 37.4 °F 25.5 °F 47% 29.99 in 10.0 mi WNW 17.3 mph 29.9 mph N/A   Scattered Clouds
3:35 PM 44.8 °F 35.9 °F 25.0 °F 46% 29.99 in 10.0 mi West 24.2 mph 33.4 mph N/A   Clear
3:55 PM 45.0 °F 36.6 °F 24.6 °F 45% 29.99 in 10.0 mi WNW 21.9 mph 32.2 mph N/A   Clear
4:15 PM 45.0 °F 37.1 °F 25.0 °F 46% 29.99 in 10.0 mi WNW 19.6 mph 28.8 mph N/A   Clear
4:35 PM 45.0 °F 36.6 °F 23.7 °F 43% 29.99 in 10.0 mi WNW 21.9 mph 29.9 mph N/A   Clear
4:55 PM 44.8 °F 36.4 °F 23.5 °F 43% 29.99 in 10.0 mi West 21.9 mph - N/A   Clear
5:15 PM 44.6 °F 37.2 °F 23.2 °F 43% 29.99 in 10.0 mi WNW 17.3 mph - N/A   Clear
5:35 PM 43.9 °F 38.3 °F 23.7 °F 45% 29.99 in 10.0 mi WNW 10.4 mph - N/A   Clear
5:55 PM 43.0 °F 36.4 °F 23.5 °F 46% 30.00 in 10.0 mi WNW 12.7 mph - N/A   Clear
6:15 PM 40.8 °F 36.2 °F 25.2 °F 54% 30.00 in 10.0 mi NW 6.9 mph - N/A   Clear
6:35 PM 38.5 °F 36.1 °F 24.6 °F 58% 30.01 in 10.0 mi WNW 3.5 mph - N/A   Clear
6:55 PM 39.2 °F 37.0 °F 22.5 °F 51% 30.01 in 10.0 mi West 3.5 mph - N/A   Clear
7:15 PM 39.4 °F - 21.7 °F 49% 30.02 in 10.0 mi Calm Calm - N/A   Clear
7:35 PM 36.0 °F 33.3 °F 25.7 °F 66% 30.02 in 10.0 mi South 3.5 mph - N/A   Clear
7:55 PM 37.2 °F - 23.2 °F 57% 30.02 in 10.0 mi Calm Calm - N/A   Clear
8:15 PM 36.7 °F 34.1 °F 23.5 °F 59% 30.03 in 10.0 mi South 3.5 mph - N/A   Clear
8:35 PM 35.6 °F 32.8 °F 24.1 °F 63% 30.03 in 10.0 mi South 3.5 mph - N/A   Clear
8:55 PM 34.0 °F 31.0 °F 26.2 °F 73% 30.03 in 10.0 mi SSW 3.5 mph - N/A   Clear
9:15 PM 35.2 °F - 25.3 °F 67% 30.04 in 10.0 mi Calm Calm - N/A   Clear
9:35 PM 34.0 °F - 25.5 °F 71% 30.03 in 10.0 mi Calm Calm - N/A   Clear
10:15 PM 34.0 °F 29.8 °F 25.9 °F 72% 30.04 in 10.0 mi WSW 4.6 mph - N/A   Clear
10:35 PM 35.4 °F 31.5 °F 25.9 °F 68% 30.03 in 10.0 mi WSW 4.6 mph - N/A   Clear
10:55 PM 35.6 °F 31.7 °F 25.7 °F 67% 30.04 in 10.0 mi West 4.6 mph - N/A   Clear
11:15 PM 36.7 °F 32.0 °F 25.7 °F 64% 30.03 in 10.0 mi WSW 5.8 mph - N/A   Clear
11:35 PM 36.7 °F 31.2 °F 25.5 °F 64% 30.03 in 10.0 mi West 6.9 mph - N/A   Clear
11:55 PM 36.5 °F 30.3 °F 25.2 °F 64% 30.04 in 10.0 mi WSW 8.1 mph - N/A   Clear